GW4746 Weather Reports


Display with metric or nautical units.
time (UTC)temp
F
wind
direction
speed
MPH
gust
MPH
rain 1hr
in
rain 24hr
in
rain mn
in
humidity
%
barometer
mb
20260902230034 100 143 1.0 6.0 0.00 0.00 0.00 28 1012.4
20260902224531 102 97 0.0 5.0 0.00 0.00 0.00 27 1012.4
20260902223036 103 106 0.0 3.0 0.00 0.00 0.00 26 1012.5
20260902221506 103 131 1.0 3.0 0.00 0.00 0.00 25 1012.5
20260902220016 102 68 1.0 3.0 0.00 0.00 0.00 26 1012.7
20260902214520 102 125 4.0 8.0 0.00 0.00 0.00 26 1012.8
20260902213027 102 116 2.0 4.0 0.00 0.00 0.00 26 1013.0
20260902211534 102 225 2.0 5.0 0.00 0.00 0.00 26 1013.2
20260902210011 102 32 0.0 3.0 0.00 0.00 0.00 26 1013.3
20260902204533 103 112 1.0 4.0 0.00 0.00 0.00 25 1013.7
20260902203020 103 207 2.0 5.0 0.00 0.00 0.00 25 1013.9
20260902201527 103 162 3.0 4.0 0.00 0.00 0.00 26 1014.1
20260902200031 103 107 1.0 5.0 0.00 0.00 0.00 26 1014.4
20260902194536 103 70 2.0 4.0 0.00 0.00 0.00 27 1014.6
20260902193015 101 11 0.0 6.0 0.00 0.00 0.00 27 1014.8
20260902191539 102 162 2.0 7.0 0.00 0.00 0.00 28 1015.1
20260902190048 102 172 0.0 3.0 0.00 0.00 0.00 27 1015.5
20260902184530 101 198 0.0 3.0 0.00 0.00 0.00 29 1015.7
20260902183039 99 77 1.0 4.0 0.00 0.00 0.00 30 1015.9
20260902181516 99 153 1.0 3.0 0.00 0.00 0.00 30 1016.2
20260902180033 101 248 1.0 6.0 0.00 0.00 0.00 29 1016.4
20260902174533 98 159 2.0 7.0 0.00 0.00 0.00 32 1016.5
20260902173037 100 99 3.0 5.0 0.00 0.00 0.00 32 1016.6
20260902171547 98 203 1.0 5.0 0.00 0.00 0.00 34 1016.8
20260902170014 98 152 1.0 5.0 0.00 0.00 0.00 35 1017.1
20260902164527 97 214 2.0 4.0 0.00 0.00 0.00 34 1017.2
20260902163027 97 188 2.0 5.0 0.00 0.00 0.00 35 1017.3
20260902161544 96 112 1.0 3.0 0.00 0.00 0.00 38 1017.3
20260902160039 94 240 1.0 6.0 0.00 0.00 0.00 40 1017.2
20260902154535 94 139 2.0 6.0 0.00 0.00 0.00 40 1017.3
20260902153032 93 170 1.0 4.0 0.00 0.00 0.00 42 1017.3
20260902151529 91 163 1.0 4.0 0.00 0.00 0.00 44 1017.2
20260902150033 89 109 1.0 6.0 0.00 0.00 0.00 48 1017.2
20260902144535 88 245 2.0 6.0 0.00 0.00 0.00 51 1017.3
20260902143035 87 241 1.0 4.0 0.00 0.00 0.00 52 1017.3
20260902141534 86 217 2.0 3.0 0.00 0.00 0.00 53 1017.3
20260902140031 84 179 0.0 2.0 0.00 0.00 0.00 56 1017.4
20260902134539 83 146 0.0 4.0 0.00 0.00 0.00 59 1017.4
20260902133026 81 146 0.0 3.0 0.00 0.00 0.00 62 1017.2
20260902131523 79 174 0.0 1.0 0.00 0.00 0.00 65 1017.2
20260902130029 78 190 0.0 0.0 0.00 0.00 0.00 66 1017.2
20260902124510 77 163 0.0 1.0 0.00 0.00 0.00 67 1017.1
20260902123030 77 160 0.0 1.0 0.00 0.00 0.00 67 1017.0
20260902121533 77 160 0.0 1.0 0.00 0.00 0.00 66 1016.7
20260902120035 78 113 0.0 1.0 0.00 0.00 0.00 65 1016.6
20260902114537 79 159 0.0 0.0 0.00 0.00 0.00 64 1016.5
20260902113016 79 172 0.0 1.0 0.00 0.00 0.00 62 1016.5
20260902111512 80 181 1.0 3.0 0.00 0.00 0.00 62 1016.6
20260902110017 80 166 0.0 3.0 0.00 0.00 0.00 61 1016.5
20260902104533 81 174 0.0 1.0 0.00 0.00 0.00 61 1016.6
20260902103031 81 171 0.0 2.0 0.00 0.00 0.00 60 1016.6
20260902101533 81 198 1.0 3.0 0.00 0.00 0.00 60 1016.5
20260902100034 81 153 0.0 3.0 0.00 0.00 0.00 59 1016.5
20260902094534 82 165 0.0 4.0 0.00 0.00 0.00 58 1016.5
20260902093038 82 198 1.0 3.0 0.00 0.00 0.00 58 1016.4
20260902091531 81 156 1.0 2.0 0.00 0.00 0.00 58 1016.5
20260902090033 81 159 0.0 0.0 0.00 0.00 0.00 58 1016.5
20260902084537 81 107 0.0 2.0 0.00 0.00 0.00 57 1016.6
20260902083029 81 166 0.0 2.0 0.00 0.00 0.00 57 1016.5
20260902081530 81 99 1.0 4.0 0.00 0.00 0.00 57 1016.5
20260902080034 81 116 0.0 3.0 0.00 0.00 0.00 57 1016.5
20260902074540 81 143 0.0 2.0 0.00 0.00 0.00 56 1016.6
20260902073020 81 113 0.0 2.0 0.00 0.00 0.00 55 1016.6
20260902071504 81 181 0.0 3.0 0.00 0.00 0.00 55 1016.7
20260902070008 81 141 0.0 2.0 0.00 0.00 0.00 54 1016.8
20260902064520 81 155 1.0 3.0 0.00 0.00 0.00 53 1016.7
20260902063017 81 110 1.0 2.0 0.00 0.00 0.00 53 1016.5
20260902061522 82 109 0.0 2.0 0.00 0.00 0.00 53 1016.5
20260902060026 82 89 0.0 3.0 0.00 0.00 0.00 53 1016.4
20260902054514 82 103 0.0 2.0 0.00 0.00 0.00 52 1016.3
20260902053010 83 110 0.0 2.0 0.00 0.00 0.00 50 1016.4
20260902051521 84 222 0.0 2.0 0.00 0.00 0.00 50 1016.4
20260902050030 84 140 0.0 3.0 0.00 0.00 0.00 48 1016.4
20260902044512 84 148 2.0 4.0 0.00 0.00 0.00 48 1016.5
20260902043007 85 69 1.0 4.0 0.00 0.00 0.00 46 1016.6
20260902041546 85 108 1.0 4.0 0.00 0.00 0.00 45 1016.5
20260902040024 85 148 1.0 4.0 0.00 0.00 0.00 44 1016.3
20260902034526 86 110 1.0 4.0 0.00 0.00 0.00 43 1016.4
20260902033028 86 103 1.0 2.0 0.00 0.00 0.00 42 1016.1
20260902031530 87 117 1.0 3.0 0.00 0.00 0.00 41 1016.0
20260902030014 87 115 1.0 3.0 0.00 0.00 0.00 40 1015.7
20260902024520 88 156 0.0 3.0 0.00 0.00 0.00 38 1015.5
20260902023038 89 101 0.0 3.0 0.00 0.00 0.00 37 1015.2
20260902021528 89 128 1.0 3.0 0.00 0.00 0.00 35 1015.0
20260902020011 90 127 0.0 3.0 0.00 0.00 0.00 34 1014.7
20260902014533 90 119 0.0 3.0 0.00 0.00 0.00 33 1014.5
20260902013036 91 106 0.0 3.0 0.00 0.00 0.00 32 1014.4
20260902011528 92 129 0.0 2.0 0.00 0.00 0.00 32 1014.3
20260902010045 93 106 0.0 3.0 0.00 0.00 0.00 31 1014.2
20260902004525 94 138 1.0 9.0 0.00 0.00 0.00 30 1014.1
20260902003050 95 93 2.0 6.0 0.00 0.00 0.00 28 1014.3
20260902001530 96 113 1.0 6.0 0.00 0.00 0.00 28 1014.3
20260902000035 97 94 3.0 8.0 0.00 0.00 0.00 27 1014.1
20260901234530 97 102 1.0 6.0 0.00 0.00 0.00 27 1014.3
20260901233016 98 130 2.0 4.0 0.00 0.00 0.00 26 1014.3
20260901231521 98 113 0.0 5.0 0.00 0.00 0.00 27 1014.1